Weather History for Winter Haven, FL

Change the Weather History Date:

Friday, June 21, 2013

  Actual Average Record
Temperature  
Mean Temperature 81 °F -  
Max Temperature 90 °F 91 °F 99 °F (2011)
Min Temperature 72 °F 70 °F 61 °F (1969)
Cooling Degree Days 16    
Growing Degree Days 31 (Base 50)    
Moisture  
Dew Point 70 °F    
Average Humidity 83    
Maximum Humidity 93    
Minimum Humidity 50    
Precipitation  
Precipitation 1.12 in - - ()
Sea Level Pressure  
Sea Level Pressure 30.12 in    
Wind  
Wind Speed 4 mph (ENE)    
Max Wind Speed 15 mph    
Max Gust Speed 21 mph    
Visibility 7 miles    
Events Rain    
Averages and records for this station are not official NWS values.
T = Trace of Precipitation, MM = Missing Value Source: NWS Daily Summary

Daily Weather History Graph

Daily Weather History Graph

Search for Another Location

Airport:

Trip Planner

Search our weather history database for the weather conditions in past years. The results will help you decide how hot, cold, wet, or windy it might be!

Date:

Astronomy

Jun. 21, 2013 Rise Set
Actual Time 6:31 AM EDT 8:26 PM EDT
Civil Twilight 6:04 AM EDT 8:53 PM EDT
Nautical Twilight 5:32 AM EDT 9:25 PM EDT
Astronomical Twilight 4:57 AM EDT 10:00 PM EDT
Moon 6:41 PM EDT 4:38 AM EDT
Length of Visible Light 14h 49m
Length of Day
13h 55m
Waxing Gibbous, 95% of the Moon is Illuminated
Jun 21
Waxing Gibbous
Jun 23
Full
Jun 30
Last Quarter
Jul 8
New
Jul 15
First Quarter

Hourly Weather History & Observations

Time (EDT) Temp. Heat Index Dew Point Humidity Pressure Visibility Wind Dir Wind Speed Gust Speed Precip Events Conditions
12:53 AM 73.9 °F - 70.0 °F 87% 30.11 in 10.0 mi East 3.5 mph - N/A   Clear
1:53 AM 73.9 °F - 69.1 °F 85% 30.10 in 10.0 mi ENE 3.5 mph - N/A   Clear
2:53 AM 73.9 °F - 70.0 °F 87% 30.08 in 10.0 mi Calm Calm - N/A   Partly Cloudy
3:53 AM 73.9 °F - 70.0 °F 87% 30.07 in 10.0 mi SSE 3.5 mph - N/A   Clear
4:53 AM 73.0 °F - 70.0 °F 90% 30.07 in 10.0 mi South 3.5 mph - N/A   Clear
5:53 AM 73.9 °F - 70.0 °F 87% 30.07 in 10.0 mi Calm Calm - N/A   Clear
6:53 AM 73.0 °F - 70.0 °F 90% 30.08 in 10.0 mi NE 3.5 mph - N/A   Clear
7:53 AM 77.0 °F - 71.1 °F 82% 30.10 in 10.0 mi Calm Calm - N/A   Clear
8:53 AM 79.0 °F - 71.1 °F 77% 30.12 in 10.0 mi Calm Calm - N/A   Clear
9:53 AM 82.9 °F 87.5 °F 71.1 °F 67% 30.13 in 10.0 mi Calm Calm - N/A   Clear
10:53 AM 84.0 °F 87.8 °F 69.1 °F 61% 30.14 in 10.0 mi Variable 4.6 mph - N/A   Clear
11:53 AM 88.0 °F 92.9 °F 70.0 °F 55% 30.13 in 10.0 mi Variable 4.6 mph - N/A   Clear
12:53 PM 89.1 °F 92.9 °F 68.0 °F 50% 30.11 in 10.0 mi SSE 5.8 mph - N/A   Scattered Clouds
1:53 PM 90.0 °F 94.5 °F 69.1 °F 50% 30.10 in 10.0 mi Variable 4.6 mph - N/A   Partly Cloudy
2:53 PM 80.1 °F 82.7 °F 68.0 °F 67% 30.09 in 10.0 mi West 11.5 mph - 0.00 in   Mostly Cloudy
3:23 PM 77.0 °F - 72.0 °F 84% 30.13 in 2.5 mi ESE 11.5 mph 18.4 mph 0.03 in Rain Rain
3:39 PM 75.0 °F - 71.1 °F 87% 30.14 in 4.0 mi North 15.0 mph - 0.11 in Rain Light Rain
3:53 PM 73.0 °F - 70.0 °F 90% 30.14 in 1.8 mi NNE 10.4 mph - 0.28 in Rain Heavy Rain
3:57 PM 72.0 °F - 69.1 °F 91% 30.15 in 0.8 mi NNE 9.2 mph 20.7 mph 0.16 in Rain Heavy Rain
4:21 PM 72.0 °F - 70.0 °F 93% 30.15 in 1.5 mi NNE 12.7 mph - 0.57 in Rain Rain
4:23 PM 72.0 °F - 70.0 °F 93% 30.14 in 2.0 mi NNE 11.5 mph - 0.58 in Rain Rain
4:25 PM 72.0 °F - 70.0 °F 93% 30.14 in 2.5 mi NNE 10.4 mph - 0.59 in Rain Rain
4:44 PM 73.0 °F - 71.1 °F 93% 30.13 in 4.0 mi NW 3.5 mph - 0.65 in Rain Light Rain
4:53 PM 73.9 °F - 71.1 °F 91% 30.12 in 5.0 mi Calm Calm - 0.66 in Rain Light Rain
5:53 PM 73.9 °F - 72.0 °F 93% 30.13 in 4.0 mi WNW 5.8 mph - 0.09 in Rain Light Rain
6:03 PM 73.9 °F - 72.0 °F 93% 30.13 in 2.0 mi Calm Calm - 0.03 in Rain Rain
6:10 PM 75.0 °F - 72.0 °F 90% 30.13 in 3.0 mi NE 4.6 mph - 0.05 in Rain Rain
6:53 PM 75.9 °F - 72.0 °F 87% 30.12 in 10.0 mi ESE 3.5 mph - 0.09 in   Partly Cloudy
7:53 PM 75.0 °F - 71.1 °F 87% 30.11 in 10.0 mi North - - N/A   Scattered Clouds
8:53 PM 75.0 °F - 71.1 °F 87% 30.12 in 10.0 mi SSE 4.6 mph - N/A   Clear
9:53 PM 75.0 °F - 72.0 °F 90% 30.12 in 10.0 mi Calm Calm - N/A   Clear
10:53 PM 75.0 °F - 72.0 °F 90% 30.13 in 10.0 mi Calm Calm - N/A   Clear
11:53 PM 73.9 °F - 71.1 °F 91% 30.13 in 10.0 mi East 5.8 mph - N/A   Clear